Погода в Трольхеттане

Швеция     58°17′15″N   12°17′56″E
темп.,
°C
ветер,
м/с
пор.,
м/с
влажн.,
%
обл.,
%
осадки,
мм/ч
давл.,
гПа
погр.,
м
12 апреля, пн
пн1223:00+1всв41097100 1.5 1011424
02:00+1св3798100 2.3 1009307
05:00+1зюз1199100 0.3 1009107
08:00+2юз3891100 0.4 1010889
11:00+3зюз5983100 0.2 1012918
14:00+4юз598088 0.3 10141153
17:00+5юз59685 0.1 10141356
20:00+3юз49815 0.1 1015499
13 апреля, вт
вт1323:00+2ююз4118633 0.0 1015536
02:00+1ююз4109498 0.3 1014590
05:00+1з3793100 0.7 1015784
08:00+2з378690 0.7 1016765
11:00+4зсз4665100 0.1 10181363
14:00+6зсз3555100 0.1 10191524
17:00+6зсз444773 0.1 10201669
20:00+2зсз237379 0.4 102279
14 апреля, ср
ср1423:000зсз11835 0.0 102318
02:00−1сз11835 0.0 102410
05:00−1сз118192 0.0 102510
08:00+2с1566100 0.0 1027195
11:00+7св363938 0.0 10271927
14:00+8св353694 0.0 10272069
17:00+7ссз244499 0.0 10271700
20:00+4зсз246291 0.0 102881
15 апреля, чт
чт1523:00+1ссз227782 0.0 103045
02:00+1с118312 0.0 103013
05:000с23935 0.0 103151
08:00+3ссв268071 0.0 1032265
11:00+6св3563100 0.0 1033656
14:00+8св464861 0.0 10321256
17:00+8св4647100 0.0 10321012
20:00+5ссв2264100 0.0 103214
16 апреля, пт
пт1623:00+3ссв227261 0.0 103313
02:00+2ссв218740 0.0 103314
05:00+1ссв239412 0.0 103365
08:00+4ссв38825 0.0 1034372
11:00+7св48665 0.0 1034756
14:00+9св585914 0.0 1033983
17:00+10св575599 0.0 1032945
20:00+6св387153 0.0 1033182